Location: Paddlesworth
(51.1000°N, 1.1333°E)
Time: 18:58:29
(UTC+00:00)

Meteor 1-27 Rocket - Pass Details

Date: 11 May 2021
Orbit: 829 x 910 km, 81.3° (Epoch: 20 June)

Event Time Altitude Azimuth Distance (km) Brightness Sun altitude
Exits shadow 21:58:48 20° 183° (S) 1,919 5.1 -16.5°
Maximum altitude 22:02:54 79° 100° (E) 923 3.8 -16.8°
Drops below altitude 10° 22:08:51 10° 15° (NNE) 2,605 7.0 -17.2°
Sets 22:11:21 0° 14° (NNE) 3,554 7.8 -17.4°
